Tampa Macdill AFB, FL

6:54 PM EST on December 15, 2019 (GMT -0500)
MacDill Air Force Base

Weather History for KMCF - October, 2019

Change the Weather History Date:

Sunday, October 13, 2019

  Actual Average Record
Temperature  
Mean Temperature 77 °F -  
Max Temperature 88 °F 82 °F 91 °F (2001)
Min Temperature 67 °F 66 °F 62 °F (2000)
Cooling Degree Days 12    
Growing Degree Days 27 (Base 50)    
Moisture  
Dew Point 67 °F    
Average Humidity 68    
Maximum Humidity 91    
Minimum Humidity 46    
Precipitation  
Precipitation 0.00 in - - ()
Sea Level Pressure  
Sea Level Pressure 30.03 in    
Wind  
Wind Speed 6 mph (ESE)    
Max Wind Speed 9 mph    
Max Gust Speed -    
Visibility 10 miles    
Events Rain    
Averages and records for this station are not official NWS values.
T = Trace of Precipitation, MM = Missing Value Source: NWS Daily Summary

Daily Weather History Graph

Daily Weather History Graph

Search for Another Location

Airport or City:

Astronomy

Oct. 13, 2019 Rise Set
Actual Time 7:29 AM EDT 7:03 PM EDT
Civil Twilight 7:05 AM EDT 7:26 PM EDT
Nautical Twilight 6:38 AM EDT 7:53 PM EDT
Astronomical Twilight 6:11 AM EDT 8:21 PM EDT
Moon 7:20 PM EDT (10/13) 7:09 AM EDT (10/13)
Length of Visible Light 12h 21m
Length of Day
11h 34m
Full, 100% of the Moon is Illuminated
Oct 13
Full
Oct 13
Full
Oct 21
Last Quarter
Oct 27
New
Nov 4
First Quarter

Hourly Weather History & Observations

Time (EDT) Temp. Heat Index Dew Point Humidity Pressure Visibility Wind Dir Wind Speed Gust Speed Precip Events Conditions
12:56 AM 74.7 °F - 67.3 °F 78% 30.04 in 10.0 mi SE 8.1 mph - N/A   Clear
1:56 AM 74.1 °F - 67.1 °F 79% 30.03 in 10.0 mi SE 9.2 mph - N/A   Clear
2:56 AM 73.9 °F - 67.3 °F 80% 30.01 in 10.0 mi SE 9.2 mph - N/A   Clear
3:56 AM 73.2 °F - 66.9 °F 81% 30.01 in 10.0 mi ESE 8.1 mph - N/A   Clear
4:56 AM 71.2 °F - 66.4 °F 85% 30.00 in 10.0 mi ESE 4.6 mph - N/A   Clear
5:56 AM 70.2 °F - 66.0 °F 87% 30.01 in 10.0 mi ESE 5.8 mph - N/A   Clear
6:56 AM 69.8 °F - 65.1 °F 85% 30.03 in 10.0 mi East 4.6 mph - N/A   Clear
7:56 AM 67.3 °F - 64.6 °F 91% 30.05 in 10.0 mi East 4.6 mph - N/A   Clear
8:56 AM 74.8 °F - 68.9 °F 82% 30.05 in 10.0 mi East 6.9 mph - N/A   Clear
9:56 AM 78.8 °F - 67.3 °F 68% 30.06 in 10.0 mi East 8.1 mph - N/A   Clear
10:56 AM 81.7 °F 84.5 °F 67.8 °F 63% 30.07 in 10.0 mi ESE 6.9 mph - N/A   Clear
11:56 AM 82.8 °F 85.3 °F 66.9 °F 59% 30.06 in 10.0 mi South 8.1 mph - N/A   Clear
12:56 PM 84.2 °F 86.8 °F 66.7 °F 56% 30.06 in 10.0 mi Calm Calm - N/A   Clear
1:56 PM 85.1 °F 87.7 °F 66.6 °F 54% 30.03 in 10.0 mi South 6.9 mph - N/A   Scattered Clouds
2:56 PM 86.0 °F 87.9 °F 65.1 °F 50% 30.02 in 10.0 mi SSW 4.6 mph - N/A   Mostly Cloudy
3:56 PM 86.0 °F 87.9 °F 65.1 °F 50% 30.00 in 10.0 mi South 4.6 mph - N/A   Clear
4:39 PM 87.8 °F 90.4 °F 66.2 °F 49% 30.00 in 10.0 mi Calm Calm - N/A Rain Light Rain
4:49 PM 87.8 °F 90.4 °F 66.2 °F 49% 30.00 in 10.0 mi Calm Calm - N/A   Overcast
4:56 PM 87.6 °F 89.1 °F 64.8 °F 46% 30.00 in 10.0 mi NW 3.5 mph - 0.00 in   Mostly Cloudy
5:56 PM 86.4 °F 88.1 °F 64.9 °F 49% 30.00 in 10.0 mi WNW 3.5 mph - N/A   Clear
6:56 PM 81.9 °F 84.6 °F 67.5 °F 62% 30.01 in 6.0 mi North 3.5 mph - N/A   Haze
7:56 PM 78.4 °F - 66.9 °F 68% 30.02 in 10.0 mi NE 4.6 mph - N/A   Clear
8:56 PM 78.6 °F - 67.5 °F 68% 30.03 in 10.0 mi NNE 4.6 mph - N/A   Clear
9:56 PM 77.0 °F - 67.6 °F 73% 30.04 in 10.0 mi NE 5.8 mph - N/A   Clear
10:56 PM 72.9 °F - 66.2 °F 80% 30.05 in 10.0 mi East 3.5 mph - N/A   Clear
11:56 PM 74.8 °F - 69.3 °F 83% 30.06 in 10.0 mi ESE 5.8 mph - N/A   Partly Cloudy